Terug naar catalogus

OPS 4682 DEB

ActiefPO
NORAD 26732·DEBRIS·🇺🇸 United States

Gelanceerd Apr 3, 1965 vanaf Vandenberg Space Force Base

Loading…

Volgende Passages (komende 24 uur)

TLE

VersSource: Space-Track

Epoch: Sep 14, 2026, 06:56 UTC

1 26732U 65027BF  26257.28943000  .00001270  00000-0  44058-2 0  9991
2 26732  90.2647  13.2517 0058535 309.4069  77.6231 12.96046692506716

Volg OPS 4682 DEB in realtime met AllMySat

Download on the App Store